This demonstration page uses our WeatherBlox Daily Observations layout. Learn more.

39.51506, -84.39828

Hourly Observations for August 7, 2020

Temp ( °F °C ) Dew Point ( °F °C ) Humidity (%) Winds ( mph kmh ) Pressure ( in mb ) Visibility ( mi km ) Precip ( " mm )
12:15 am 00:15 Cloudy 65 18.2 61 16.2 88 88 Calm 30.1 1019 10 16.0934 0 0
12:35 am 00:35 Mostly Cloudy 65 18.3 61 15.9 86 86 Calm 30.09 1019 10 16.0934 0 0
12:55 am 00:55 Partly Cloudy 64 17.6 60 15.7 89 89 NNE 6 9 30.09 1019 10 16.0934 0 0
1:15 am 01:15 Mostly Cloudy 63 17.2 60 15.6 90 90 Calm 30.09 1019 10 16.0934 0 0
1:35 am 01:35 Clear with Mist and Fog 63 17.1 60 15.5 90 90 NNE 3 6 30.09 1019 5 8.0467 0 0
1:55 am 01:55 Clear 62 16.9 62 16.4 97 97 Calm 30.09 1019 10 16.0934 0 0
2:15 am 02:15 Clear 62 16.9 60 15.7 93 93 Calm 30.1 1019 10 16.0934 0 0
2:35 am 02:35 Partly Cloudy 62 16.7 59 15.2 91 91 N 3 6 30.1 1019 10 16.0934 0 0
2:55 am 02:55 Partly Cloudy 62 16.4 59 15.2 93 93 NNE 5 7 30.1 1019 10 16.0934 0 0
3:15 am 03:15 Clear 62 16.5 59 15.1 92 92 NNE 5 7 30.1 1019 10 16.0934 0 0
3:35 am 03:35 Clear 61 16.3 59 15 92 92 Calm 30.11 1020 10 16.0934 0 0
3:55 am 03:55 Partly Cloudy 62 16.5 59 15.1 92 92 Calm 30.11 1020 10 16.0934 0 0
4:15 am 04:15 Cloudy 61 16.2 59 15 93 93 Calm 30.11 1020 10 16.0934 0 0
4:35 am 04:35 Mostly Cloudy 61 15.9 59 14.9 94 94 NNE 3 6 30.11 1020 10 16.0934 0 0
4:55 am 04:55 Clear 61 15.9 59 14.8 93 93 NNE 5 7 30.11 1020 10 16.0934 0 0
5:15 am 05:15 Cloudy 61 16 59 14.8 93 93 Calm 30.11 1020 10 16.0934 0 0
5:35 am 05:35 Cloudy 61 16.1 59 14.8 92 92 N 5 7 30.11 1020 10 16.0934 0 0
5:55 am 05:55 Cloudy 61 16.1 59 14.8 92 92 Calm 30.12 1020 10 16.0934 0 0
6:15 am 06:15 Mostly Cloudy 61 16 58 14.5 91 91 Calm 30.12 1020 10 16.0934 0 0
6:35 am 06:35 Partly Cloudy 60 15.5 58 14.3 93 93 Calm 30.13 1020 10 16.0934 0 0
6:55 am 06:55 Sunny 60 15.3 58 14.2 93 93 N 5 7 30.14 1021 10 16.0934 0 0
7:15 am 07:15 Sunny 60 15.7 58 14.2 91 91 NE 3 6 30.13 1020 10 16.0934 0 0
7:35 am 07:35 Sunny 60 15.6 58 14.3 92 92 Calm 30.15 1021 10 16.0934 0 0
7:55 am 07:55 Sunny 62 16.6 58 14.6 88 88 Calm 30.14 1021 10 16.0934 0 0
8:15 am 08:15 Mostly Cloudy 63 17.2 59 15 87 87 N 3 6 30.15 1021 10 16.0934 0 0
8:35 am 08:35 Cloudy 64 17.9 59 14.9 83 83 N 5 7 30.15 1021 10 16.0934 0 0
8:55 am 08:55 Cloudy 66 18.7 60 15.4 81 81 Calm 30.16 1021 10 16.0934 0 0
9:15 am 09:15 Cloudy 66 19 60 15.3 79 79 NE 6 9 30.16 1021 10 16.0934 0 0
9:35 am 09:35 Mostly Cloudy 68 20 60 15.5 75 75 NNE 6 9 30.15 1021 10 16.0934 0 0
9:55 am 09:55 Mostly Cloudy 70 20.9 61 15.9 73 73 NE 7 11 30.15 1021 10 16.0934 0 0
10:15 am 10:15 Mostly Cloudy 72 22 62 16.5 71 71 NNE 8 13 30.14 1021 10 16.0934 0 0
10:35 am 10:35 Mostly Cloudy 73 22.5 61 16 67 67 NE 9 15 30.15 1021 10 16.0934 0 0
10:55 am 10:55 Partly Cloudy 74 23.4 61 16.1 64 64 NE 7 11 30.15 1021 10 16.0934 0 0
11:15 am 11:15 Sunny 75 24 60 15.4 59 59 NNE 8 13 30.15 1021 10 16.0934 0 0
11:35 am 11:35 Sunny 76 24.4 59 14.9 56 56 NNE 8 13 30.14 1021 10 16.0934 0 0
11:55 am 11:55 Sunny 76 24.7 57 13.9 51 51 NE 9 15 30.14 1021 10 16.0934 0 0
12:15 pm 12:15 Sunny 77 25.1 59 14.8 53 53 NNE 9 15 30.14 1021 10 16.0934 0 0
12:35 pm 12:35 Sunny 78 25.3 60 15.5 55 55 NNE 6 9 30.14 1021 10 16.0934 0 0
12:55 pm 12:55 Partly Cloudy 77 24.9 59 15.2 55 55 NNE 9 15 30.13 1020 10 16.0934 0 0
1:15 pm 13:15 Partly Cloudy 79 25.9 60 15.8 54 54 NE 6 9 30.14 1021 10 16.0934 0 0
1:35 pm 13:35 Partly Cloudy 79 26.2 60 15.3 51 51 NNE 5 7 30.13 1020 10 16.0934 0 0
1:55 pm 13:55 Sunny 79 26.1 59 15 50 50 N 3 6 30.13 1020 10 16.0934 0 0
2:15 pm 14:15 Partly Cloudy 77 25.1 58 14.2 51 51 NNE 3 6 30.13 1020 10 16.0934 0 0
2:35 pm 14:35 Partly Cloudy 78 25.5 57 13.7 48 48 Calm 30.13 1020 10 16.0934 0 0
2:55 pm 14:55 Mostly Cloudy 78 25.6 57 14.1 49 49 NNE 3 6 30.13 1020 10 16.0934 0 0
3:15 pm 15:15 Sunny 78 25.6 58 14.7 51 51 Calm 30.13 1020 10 16.0934 0 0
3:35 pm 15:35 Sunny 80 26.7 58 14.4 47 47 NNW 3 6 30.12 1020 10 16.0934 0 0
3:55 pm 15:55 Cloudy 80 26.8 59 14.9 48 48 NNE 6 9 30.12 1020 10 16.0934 0 0
4:15 pm 16:15 Cloudy 78 25.5 59 14.9 52 52 NNE 3 6 30.12 1020 10 16.0934 0 0
4:35 pm 16:35 Partly Cloudy 78 25.4 59 14.9 52 52 NNE 5 7 30.11 1020 10 16.0934 0 0
4:55 pm 16:55 Sunny 78 25.8 59 15.2 52 52 N 5 7 30.11 1020 10 16.0934 0 0
5:15 pm 17:15 Sunny 77 24.8 62 16.7 61 61 WNW 3 6 30.11 1020 10 16.0934 0 0
5:35 pm 17:35 Sunny 77 24.8 62 16.7 61 61 Calm 30.11 1020 10 16.0934 0 0
5:55 pm 17:55 Sunny 80 26.5 61 16 53 53 NW 7 11 30.1 1019 10 16.0934 0 0
6:15 pm 18:15 Partly Cloudy 80 26.6 60 15.3 50 50 W 5 7 30.1 1019 10 16.0934 0 0
6:35 pm 18:35 Cloudy 80 26.6 61 15.9 52 52 Calm 30.11 1020 10 16.0934 0 0
6:55 pm 18:55 Cloudy 79 26.1 60 15.4 52 52 N 7 11 30.1 1019 10 16.0934 0 0
7:15 pm 19:15 Mostly Cloudy 78 25.6 59 15 52 52 NNW 6 9 30.1 1019 10 16.0934 0 0
7:35 pm 19:35 Sunny 77 25 60 15.4 55 55 NNW 5 7 30.1 1019 10 16.0934 0 0
7:55 pm 19:55 Sunny 76 24.2 60 15.7 59 59 NNW 5 7 30.1 1019 10 16.0934 0 0
8:15 pm 20:15 Sunny 74 23.4 60 15.8 62 62 NNW 3 6 30.12 1020 10 16.0934 0 0
8:35 pm 20:35 Sunny 72 22.4 60 15.8 66 66 N 3 6 30.12 1020 10 16.0934 0 0
8:55 pm 20:55 Clear 72 22.1 61 15.9 68 68 N 3 6 30.12 1020 10 16.0934 0 0
9:15 pm 21:15 Clear 70 20.9 61 16.2 75 75 NNW 3 6 30.13 1020 10 16.0934 0 0
9:35 pm 21:35 Clear 68 20.2 62 16.4 79 79 Calm 30.14 1021 10 16.0934 0 0
9:55 pm 21:55 Clear 68 20 62 16.4 80 80 NNE 3 6 30.14 1021 10 16.0934 0 0
10:15 pm 22:15 Clear 67 19.5 61 16.3 82 82 Calm 30.16 1021 10 16.0934 0 0
10:35 pm 22:35 Clear 67 19.4 61 16.3 82 82 NNE 3 6 30.16 1021 10 16.0934 0 0
10:55 pm 22:55 Clear 67 19.5 61 16 80 80 NNE 3 6 30.16 1021 10 16.0934 0 0
11:15 pm 23:15 Clear 63 17.1 61 16.2 94 94 Calm 30.16 1021 10 16.0934 0 0
11:35 pm 23:35 Clear 64 17.5 61 16 91 91 Calm 30.16 1021 10 16.0934 0 0
11:55 pm 23:55 Clear 62 16.9 60 15.7 93 93 Calm 30.16 1021 10 16.0934 0 0

Powered by AerisWeather